Location: Stilling
(56.0622°N, 9.9882°E)
Time: 20:28:10
(UTC+00:00)

X-37B - Visible Passes

Search period start: 12 June 2021 00:00
Search period end: 22 June 2021 00:00
Orbit: 386 x 389 km, 45.0° (Epoch: 10 June)

Date Brightness Start Highest point End Pass type
(mag) Time Alt. Az. Time Alt. Az. Time Alt. Az.
18 Jun 2.8 00:48:20 11° S 00:48:47 11° S 00:49:44 10° SSE visible
19 Jun 2.7 01:25:14 10° SSW 01:26:26 12° S 01:27:39 10° SSE visible
20 Jun 2.7 00:28:47 12° S 00:28:47 12° S 00:29:37 10° SSE visible
21 Jun 2.7 01:05:32 10° SSW 01:06:02 11° S 01:06:48 10° S visible
